Location: Acheville
(50.3840°N, 2.8827°E)
Time: 13:04:42
(UTC+00:00)

USA 238 - Pass Details

Date: 24 October 2021
Orbit: 977 x 1235 km, 63.4° (Epoch: 25 November)

Event Time Altitude Azimuth Distance (km) Brightness Sun altitude
Rises 20:04:51 0° 313° (NW) 3,894 7.6 -33.0°
Reaches altitude 10° 20:07:33 10° 318° (NW) 2,973 6.7 -33.4°
Enters shadow 20:13:30 50° 8° (N) 1,441 4.3 -34.3°
